Weather History for Traverse City, MI

Change the Weather History Date:

Tuesday, January 8, 2013

  Actual Average Record
Temperature  
Mean Temperature 37 °F 22 °F  
Max Temperature 42 °F 28 °F 49 °F (2008)
Min Temperature 31 °F 16 °F -18 °F (1968)
Degree Days  
Heating Degree Days 28 43  
Month to date heating degree days 291 341  
Since 1 July heating degree days 2758 3149  
Moisture  
Dew Point 28 °F    
Average Humidity 70    
Maximum Humidity 82    
Minimum Humidity 57    
Precipitation  
Precipitation 0.00 in 0.09 in 0.98 in (1998)
Month to date precipitation T 0.77  
Year to date precipitation T 0.77  
Snow  
Snow 0.00 in - - ()
Snow Depth 2.00 in    
Sea Level Pressure  
Sea Level Pressure 30.06 in    
Wind  
Wind Speed 4 mph (SSW)    
Max Wind Speed 10 mph    
Max Gust Speed 17 mph    
Visibility 8 miles    
Events      
T = Trace of Precipitation, MM = Missing Value Source: NWS Daily Summary

Daily Weather History Graph

Daily Weather History Graph

Search for Another Location

Airport:

Trip Planner

Search our weather history database for the weather conditions in past years. The results will help you decide how hot, cold, wet, or windy it might be!

Date:

Astronomy

Jan. 08, 2013 Rise Set
Actual Time 8:18 AM EST 5:19 PM EST
Civil Twilight 7:45 AM EST 5:52 PM EST
Nautical Twilight 7:09 AM EST 6:29 PM EST
Astronomical Twilight 6:34 AM EST 7:04 PM EST
Moon 4:50 AM EST (1/8) 2:21 PM EST (1/8)
Length of Visible Light 10h 07m
Length of Day
9h 00m
Waning Crescent, 14% of the Moon is Illuminated
Jan 8
Waning Crescent
Jan 11
New
Jan 18
First Quarter
Jan 26
Full
Feb 3
Last Quarter

Hourly Weather History & Observations

Time (EST) Temp. Windchill Dew Point Humidity Pressure Visibility Wind Dir Wind Speed Gust Speed Precip Events Conditions
12:53 AM 36.0 °F 29.6 °F 27.0 °F 70% 30.00 in 10.0 mi SW 8.1 mph - N/A   Clear
1:53 AM 35.1 °F 30.1 °F 27.0 °F 72% 30.01 in 10.0 mi SW 5.8 mph - N/A   Clear
2:53 AM 35.1 °F 30.1 °F 27.0 °F 72% 30.02 in 10.0 mi SW 5.8 mph - N/A   Partly Cloudy
3:53 AM 35.1 °F 32.2 °F 27.0 °F 72% 30.04 in 10.0 mi WSW 3.5 mph - N/A   Overcast
4:53 AM 35.1 °F 32.2 °F 28.0 °F 76% 30.04 in 9.0 mi SSW 3.5 mph - N/A   Overcast
5:53 AM 32.0 °F - 27.0 °F 82% 30.06 in 8.0 mi Calm Calm - N/A   Scattered Clouds
6:53 AM 33.1 °F 30.0 °F 27.0 °F 78% 30.07 in 8.0 mi Variable 3.5 mph - N/A   Mostly Cloudy
7:53 AM 33.1 °F - 27.0 °F 78% 30.09 in 8.0 mi Calm Calm - N/A   Mostly Cloudy
9:53 AM 35.1 °F - 28.9 °F 78% 30.14 in 6.0 mi Calm Calm - N/A   Haze
10:53 AM 37.0 °F 34.5 °F 28.9 °F 73% 30.14 in 6.0 mi SSW 3.5 mph - N/A   Haze
11:53 AM 39.0 °F 33.4 °F 30.0 °F 70% 30.12 in 6.0 mi SSW 8.1 mph - N/A   Haze
12:53 PM 39.9 °F 34.5 °F 30.0 °F 68% 30.11 in 7.0 mi South 8.1 mph - N/A   Partly Cloudy
1:53 PM 41.0 °F 36.4 °F 28.9 °F 62% 30.09 in 7.0 mi SW 6.9 mph - N/A   Scattered Clouds
2:53 PM 42.1 °F 38.4 °F 28.9 °F 60% 30.10 in 10.0 mi South 5.8 mph - N/A   Mostly Cloudy
3:53 PM 42.1 °F 38.4 °F 30.0 °F 62% 30.10 in 8.0 mi SE 5.8 mph - N/A   Mostly Cloudy
4:53 PM 39.0 °F 35.7 °F 30.0 °F 70% 30.11 in 7.0 mi SSE 4.6 mph - N/A   Mostly Cloudy
5:53 PM 37.0 °F - 28.9 °F 73% 30.09 in 7.0 mi Calm Calm - N/A   Mostly Cloudy
7:53 PM 37.0 °F 32.4 °F 28.0 °F 70% 30.04 in 8.0 mi SSE 5.8 mph - N/A   Scattered Clouds
8:53 PM 36.0 °F 33.3 °F 26.1 °F 67% 30.02 in 8.0 mi Variable 3.5 mph - N/A   Clear
9:53 PM 36.0 °F - 25.0 °F 64% 30.01 in 9.0 mi Calm Calm - N/A   Clear
10:53 PM 36.0 °F 32.1 °F 25.0 °F 64% 29.98 in 9.0 mi Variable 4.6 mph - N/A   Clear
11:53 PM 35.1 °F 32.2 °F 24.1 °F 64% 29.98 in 8.0 mi Variable 3.5 mph - N/A   Clear